ALSAT 1 1 27559U 02054A 12136.57626156 .00000601 00000-0 10793-3 0 4827 2 27559 97.7988 347.7783 0022768 197.6550 162.3865 14.69914539505894 NIGERIASAT 1 1 27941U 03042C 12137.17510356 .00000812 00000-0 11575-3 0 7524 2 27941 97.8262 346.9718 0053310 149.7801 210.6469 14.78472757461628 UK-DMC 1 27942U 03042D 12136.87821608 .00000639 00000-0 96526-4 0 5666 2 27942 97.8160 350.2933 0065546 349.9553 10.0354 14.76255632461832 BILSAT 1 1 27943U 03042E 12137.22553451 .00000211 00000-0 49550-4 0 5824 2 27943 97.8116 337.6717 0011907 19.0315 341.1312 14.63213555461102 BEIJING 1 1 28890U 05043A 12137.17304306 .00000051 00000-0 19759-4 0 4678 2 28890 97.9060 3.5940 0014157 245.7654 114.2040 14.60326149349174 HJ-1A 1 33320U 08041A 12137.19506100 .00000781 00000-0 12521-3 0 788 2 33320 97.8663 206.6444 0026064 246.7701 113.0776 14.74217750198778 HJ-1B 1 33321U 08041B 12137.16025849 .00000769 00000-0 12298-3 0 1353 2 33321 97.8681 206.8476 0035925 264.9959 94.7170 14.74184557198758 YAOGAN 4 1 33446U 08061A 12137.24674630 -.00000556 00000-0 -76080-4 0 8353 2 33446 97.7904 201.7338 0016992 198.9863 161.0706 14.74503413186045 YAOGAN 5 1 33456U 08064A 12137.17396417 .00010845 00000-0 31502-3 0 8330 2 33456 97.2570 208.9273 0009034 204.1232 228.9004 15.35614452190555 DEIMOS-1 1 35681U 09041A 12137.16903332 .00000282 00000-0 55454-4 0 1012 2 35681 98.0365 36.6788 0001431 113.1376 246.9989 14.69711749150030 UK-DMC 2 1 35683U 09041C 12137.21136191 .00000220 00000-0 45055-4 0 1233 2 35683 98.0380 35.7763 0000983 83.4004 276.7313 14.69719170149968 RISAT 1 1 38248U 12017A 12137.13481035 .00001069 00000-0 71915-4 0 764 2 38248 97.5917 142.0625 0013501 255.7911 192.3881 15.08819798 3040